Location: Mauna Kea VIS
(19.7591°N, 155.4561°W)
Time: 05:51:47
(UTC-10:00)

Daily predictions for brighter satellites

Satellite Brightness Start Highest point End
(mag) Time Altitude Azimuth Time Altitude Azimuth Time Altitude Azimuth
Resurs 1-4 Rocket 4.4 02:11:15 10° NE 02:13:24 19° ENE 02:13:24 19° ENE
ATLAS 2A CENTAUR R/B 3.6 02:29:13 50° NNW 02:30:50 59° NNE 03:00:21 10° E
Cosmos 1844 Rocket 3.8 02:53:05 38° N 02:53:05 38° N 02:56:36 10° N
ARIANE 5 R/B 3.9 02:51:55 10° N 02:54:32 32° N 02:54:32 32° N
CZ-4C R/B 3.3 02:50:00 10° NNW 02:55:41 54° NW 02:55:41 54° NW
CZ-2D R/B 2.8 02:55:41 10° NNE 02:59:49 53° NNE 02:59:49 53° NNE
COSMOS 2406 4.1 02:58:57 10° N 03:04:26 45° ENE 03:06:12 34° ESE
Cosmos 2278 Rocket 2.6 03:06:07 60° NE 03:06:07 60° NE 03:10:54 10° NNE
Centaur D-1A AC-32 4.1 03:03:21 44° WNW 03:05:57 79° NNE 03:55:53 10° ESE
Centaur D-1A AC-32 4.1 03:03:21 45° WNW 03:05:57 79° NNE 03:55:54 10° ESE
Centaur D-1A AC-32 4.1 03:03:21 45° WNW 03:05:58 79° NNE 03:55:54 10° ESE
Centaur D-1A AC-32 4.1 03:03:21 44° WNW 03:05:58 79° NNE 03:55:54 10° ESE
USA 234 3.1 03:12:45 73° WNW 03:12:45 73° WNW 03:18:39 10° NW
Skynet4D Del rocket 4.3 03:12:34 45° N 03:12:34 45° N 03:17:52 10° ENE
GPS 2-15 Rocket1 4.2 03:22:55 39° E 03:22:55 39° E 03:26:02 10° E
Cosmos 1153 Rocket 4.4 03:28:35 63° S 03:29:42 86° E 03:36:03 10° N
SL-16 R/B 2.4 03:28:06 53° SSE 03:29:45 88° ENE 03:36:00 10° NNW
CZ-4B R/B 3.8 03:27:13 10° NNE 03:32:44 53° ESE 03:34:33 38° SSE
Okean O Rocket 1.7 03:34:37 10° NNE 03:38:35 71° NE 03:38:35 71° NE
Cosmos 1400 Rocket 4.2 03:41:19 30° NNW 03:41:19 30° NNW 03:43:26 10° N
NOSS 3-2 (C) 4.1 03:33:14 10° NW 03:40:52 53° WSW 03:42:59 43° SSW
CENTAUR R/B 4.2 03:38:14 10° N 03:45:53 43° ENE 03:53:38 10° SE
Cosmos 407 Rocket 4.3 03:41:10 10° NNW 03:44:29 36° NW 03:44:29 36° NW
UNK 4.3 03:49:53 44° NW 03:49:53 44° NW 03:53:18 10° NNW
Meteor 1-19 Rocket 4.2 03:43:51 10° N 03:49:40 80° W 03:51:55 40° S
Maqsat-H 3.9 03:51:09 14° SSE 03:51:09 14° SSE 03:52:28 10° SE
Cosmos 676 Rocket 3.8 03:45:32 10° NNW 03:50:38 64° WSW 03:50:40 63° WSW
CZ-4B R/B 3.3 03:48:52 10° NNE 03:53:22 67° ESE 03:54:28 47° SSE
USA 215 4.5 03:48:38 10° ENE 03:54:19 32° SE 03:58:26 17° S
Hubble Space Telescope 1.7 03:52:58 31° NNW 03:54:25 45° NNE 03:58:24 10° E
Resurs 1-4 Rocket 3.4 03:50:48 10° NNW 03:54:29 25° WNW 03:54:29 25° WNW
Cosmos 489 Rocket 4.3 03:51:35 10° NNW 03:57:45 69° WSW 04:01:52 22° S
Cosmos 1455 Rocket 3.2 03:58:42 54° WNW 03:58:42 54° WNW 04:02:50 10° N
IRS-1C Rocket 4.3 03:55:12 10° N 04:00:16 51° WNW 04:01:04 46° WSW
Cosmos 1315 Rocket 3.0 04:03:03 54° WNW 04:03:03 54° WNW 04:06:50 10° N
Okean 2 3.3 04:04:56 10° N 04:09:02 88° E 04:10:50 33° S
Cosmos 2016 Rocket 4.2 04:04:46 14° S 04:10:24 73° E 04:16:40 10° N
Cosmos 1975 2.8 04:13:07 34° S 04:14:48 82° E 04:18:47 10° N
COSMOS 2487 2.5 04:13:05 10° N 04:16:41 78° ENE 04:19:48 13° SSE
Meteor 1-12 Rocket 4.2 04:14:25 22° SSW 04:18:22 78° W 04:24:14 10° N
Cosmos 1954 Rocket 4.3 04:15:04 10° NNW 04:19:51 40° W 04:21:37 30° SW
Cosmos 1025 Rocket 4.3 04:18:02 10° NW 04:20:39 23° WNW 04:20:39 23° WNW
PSLV R/B 3.9 04:18:05 10° NNE 04:22:15 62° E 04:25:37 15° S
Orbus 7S 3.5 04:21:30 36° WNW 04:22:17 49° N 04:26:56 10° ENE
CSL-04 DEB 4.3 04:19:23 10° N 04:23:31 77° WNW 04:25:31 29° SSW
Palapa B4 Rocket 3.8 04:22:20 32° SW 04:24:26 57° SSE 04:31:23 10° E
ADEOS II 2.9 04:19:40 10° NNE 04:24:46 51° E 04:29:51 10° S
Cosmos 2285 Rocket 4.4 04:18:59 10° S 04:25:09 62° ESE 04:31:19 10° NNE
Thor Agena Rocket 3.5 04:23:36 10° SSE 04:28:50 88° WSW 04:34:02 10° NNW
Delta 2 Rocket 4.2 04:23:16 10° WNW 04:29:39 67° NNE 04:35:35 10° E
Timation 1 Rocket 4.3 04:27:58 16° SSW 04:32:51 88° ESE 04:38:52 10° NNE
Cosmos 1802 Rocket 4.1 04:30:15 18° SSW 04:34:42 52° W 04:40:39 10° N
Cosmos 2173 Rocket 4.3 04:32:23 21° SW 04:36:00 42° W 04:41:44 10° NNW
Cosmos 2369 Rocket 4.5 04:35:15 10° SSE 04:39:32 22° ESE 04:43:47 10° NE
ASC 2 Rocket 3.6 04:40:09 13° WNW 04:43:36 47° N 04:47:34 10° ENE
Cosmos 614 Rocket 3.9 04:42:00 10° NNW 04:47:03 60° WSW 04:52:02 10° S
ARGOS Delta rocket 4.2 04:42:50 10° N 04:48:16 66° WNW 04:53:38 10° SSW
Sakura Rocket 4.2 04:43:08 10° WNW 04:49:12 81° SSW 04:57:49 10° ESE
GPS 2-17 Rocket1 4.5 04:49:35 14° SSW 04:52:25 25° SSE 04:56:10 10° ESE
Cosmos 1743 2.9 04:50:33 10° S 04:54:22 74° E 04:58:11 10° N
Okean-O 3.4 04:54:42 10° N 04:58:40 33° WNW 05:02:24 11° SW
GPS 2-15 Rocket1 3.2 05:00:39 10° W 05:05:29 89° N 05:10:25 10° E
Cosmos 1500 4.2 05:05:55 10° SW 05:09:17 29° W 05:12:40 10° NNW
PSLV R/B 4.0 05:08:29 11° WSW 05:11:29 40° NW 05:14:38 10° NE
Ariane Rocket 3.2 05:06:58 10° NNE 05:12:02 78° ESE 05:17:04 10° S
Timation 2 Rocket 3.9 05:07:06 10° NNW 05:13:02 63° WSW 05:18:54 10° S
Tiangong 1 2.6 05:12:41 10° NNW 05:15:34 39° NE 05:18:29 10° ESE
Cosmos 2058 Rocket 3.2 05:11:51 10° S 05:16:14 79° E 05:20:35 10° N
ATLAS 5 CENTAUR R/B 2.9 05:10:04 10° NNW 05:16:20 70° ENE 05:22:49 10° SSE
Cosmos 1515 3.8 05:13:57 10° NNW 05:17:40 54° W 05:21:23 10° S
Atlas Centaur 2 3.5 05:09:25 10° SW 05:17:43 55° SSE 05:25:07 10° ENE
Cosmos 2082 Rocket 2.5 05:13:48 10° NNW 05:19:30 77° ENE 05:25:09 10° SSE
OAO 2 Rocket 3.5 05:15:23 10° WNW 05:20:18 51° SW 05:25:07 10° SE
Orbus 21S 2.5 05:16:03 10° WNW 05:20:26 51° N 05:22:32 10° E
Cosmos 1726 Rocket 3.6 05:16:38 10° SSW 05:21:01 62° W 05:25:24 10° N
Tsikada Rocket 4.0 05:15:30 10° N 05:21:39 79° W 05:27:51 10° S
Cosmos 1825 Rocket 3.6 05:18:52 10° N 05:23:13 85° E 05:27:35 10° S
